User: anonymous
Location: Caltech
(34.1382°N, 118.1253°W)
Time: 02:03:47
(UTC-07:00)
Language:

Oscar 16 - Orbit

View from above orbital plane
View from above orbital plane
View from above satellite
View from above satellite

Ground track
Ground track

The orbit data is extracted from the following two-line orbital elements,

1 20439U 90005D   14209.86951067  .00000116  00000-0  58737-4 0   779
2 20439 098.5076 146.4237 0011474 042.0965 354.6133 14.32370459280457
Epoch (UTC): 28 July 2014 20:52:05
Eccentricity: 0.0011474
inclination: 98.5076°
perigee height: 775 km
apogee height: 792 km
right ascension of ascending node: 146.4237°
argument of perigee: 42.0965°
revolutions per day: 14.32370459
mean anomaly at epoch: 354.6133°
orbit number at epoch: 28045

The dashed part of the orbit path shows where the satellite is in the earth's shadow,  

DLR